Regional Weather Roundup
Issued by NWS

Home | Current Version | Previous Version | Text Only | Print | Product List | Glossary On
Versions: 1 2 3 4 5 6 7 8 9 10 11 12 13 14 15 16 17 18 19 20 21 22 23 24 25 26 27 28 29 30 31 32 33 34 35 36 37 38 39 40 41 42 43 44 45 46 47 48 49 50
000
ASUS43 KMPX 050301
RWRMN
WEATHER ROUNDUP FOR MINNESOTA
NATIONAL WEATHER SERVICE TWIN CITIES/CHANHASSEN MN
1000 PM CDT WED MAY 04 2016


NOTE: "FAIR" INDICATES FEW OR NO CLOUDS BELOW 12,000 FEET WITH NO
SIGNIFICANT WEATHER AND/OR OBSTRUCTIONS TO VISIBILITY. N/A MEANS
CURRENT SKY AND/OR WEATHER CONDITIONS ARE NOT AVAILABLE.

MNZ060>063-068>070-050400-
   Twin Cities Metro

CITY           SKY/WX    TMP DP  RH WIND       PRES   REMARKS
TWIN CITIES    PTCLDY    58  23  26 VRB3      29.98R
ST PAUL        CLEAR     54  37  52 CALM      29.98R
CRYSTAL        CLEAR     53  26  35 NW3       29.97R
BLAINE         CLEAR     52  30  43 CALM      29.98R
EDEN PRAIRIE   CLEAR     57  24  28 N5        29.97R
SOUTH ST PAUL  CLEAR     53  31  44 CALM      29.97R
LAKE ELMO      FAIR      46  34  61 NE3       29.99R
$$
MNZ001>005-007-008-013>017-022>024-027-028-050400-
   Northwest Minnesota

CITY           SKY/WX    TMP DP  RH WIND       PRES   REMARKS
BEMIDJI        CLOUDY    49  26  41 CALM      29.97F
HALLOCK        MOCLDY    57  27  30 SE10      29.89F
ROSEAU         CLEAR     54  34  47 S7        29.92F
WARROAD        CLEAR     52  34  50 S3        29.93F
THIEF RVR FALL PTCLDY    57  25  28 CALM      29.96F
CROOKSTON      PTCLDY    55  32  41 SE6       29.96R
FOSSTON        PTCLDY    46  21  36 CALM      29.98R
DETROIT LAKES  CLEAR     55  28  35 CALM      30.00R
MOORHEAD       PTCLDY    63  28  27 SE3       29.97S
PARK RAPIDS    CLEAR     51  27  39 CALM      29.98R
MAHNOMEN       FAIR      58  27  30 CALM      29.97S
$$
MNZ006-009>011-018-025>026-050400-
   North Central Minnesota

CITY           SKY/WX    TMP DP  RH WIND       PRES   REMARKS
BAUDETTE       CLEAR     50  24  36 SE3       29.94S
FLAG ISLAND    CLEAR     48  39  71 S9        29.91F
INTL FALLS     PTCLDY    42  28  57 CALM      29.95R
WASKISH        CLEAR     45  34  65 CALM      29.96F
BIG FORK       CLEAR     43  25  49 CALM      29.97F
LONGVILLE      CLEAR     45  27  49 CALM      29.98S
GRAND RAPIDS   CLEAR     46  23  39 CALM      29.99R
CRANE LAKE     PTCLDY    37  27  65 CALM      29.98S
ORR            CLEAR     39  21  48 CALM      29.94F
COOK           CLEAR     41  27  56 CALM      29.97F
WALKER         FAIR      51  22  32 CALM      29.98S
$$
MNZ012-019>021-037-050400-
   Northeast Minnesota

CITY           SKY/WX    TMP DP  RH WIND       PRES   REMARKS
DULUTH         PTCLDY    44  25  47 SE5       29.99R
ELY            PTCLDY    39  27  60 CALM      29.97S
HIBBING        CLEAR     38  20  48 CALM      29.97S
EVELETH        PTCLDY    41  28  60 CALM      29.99R
DULUTH HARBOR  CLEAR     41  36  81 E7        30.01S
TWO HARBORS    CLEAR     39  30  70 N3        29.98S
SILVER BAY     PTCLDY    36  30  80 CALM      29.98S
GRAND MARAIS     N/A     34  29  82 NW3       30.02R
G MARAIS ARPRT CLEAR     32  27  80 CALM      29.99R
$$
MNZ029>031-032-039>041-046>048-054>057-064-050400-
   West Central Minnesota

CITY           SKY/WX    TMP DP  RH WIND       PRES   REMARKS
FERGUS FALLS   CLEAR     61  30  31 CALM      29.96S
WHEATON        CLOUDY    55  36  47 CALM      30.01S
MORRIS         PTCLDY    54  28  37 NE6       29.99R
ALEXANDRIA     CLEAR     54  27  35 NW5       30.00S
ELBOW LAKE     FAIR      56  38  49 CALM      29.99S
WADENA         CLEAR     50  30  46 CALM      29.98S
GLENWOOD       CLEAR     54  28  37 NW6       30.00S
APPLETON       CLEAR     52  30  43 CALM      30.00R
BENSON         CLEAR     52  27  37 E3        30.00R
ORTONVILLE     CLEAR     55  30  38 CALM      30.00R
MADISON        CLEAR     55  30  38 N5        30.00R
WILLMAR        FAIR      54  28  37 CALM      30.01R
$$
MNZ033>034-036-042>043-049>051-058-059-050400-
   Central Minnesota

CITY           SKY/WX    TMP DP  RH WIND       PRES   REMARKS
ST CLOUD       CLEAR     49  28  44 CALM      29.98R
SAUK CENTRE    FAIR      51  30  44 CALM      29.99R
PAYNESVILLE    CLEAR     51  30  44 CALM      29.99R
AITKIN         CLEAR     43  28  56 CALM      29.97R
PINE RIVER     CLEAR     45  32  61 CALM      30.02R
BRAINERD       CLEAR     48  30  49 CALM      29.99R
STAPLES        CLEAR     48  27  43 CALM      29.99R
LONG PRAIRIE   FAIR      50  34  53 CALM      30.00R
LITTLE FALLS   CLEAR     46  28  49 CALM      29.99S
LITCHFIELD     CLEAR     55  30  38 CALM      30.00R
BUFFALO        CLEAR     52  28  39 CALM      29.99S
MAPLE LAKE     CLEAR     49  36  60 CALM      29.99R
HUTCHINSON     MOCLDY    53  31  42 CALM      30.00R
$$
MNZ037-044-045-052-053-050400-
   East Central Minnesota

CITY           SKY/WX    TMP DP  RH WIND       PRES   REMARKS
PRINCETON      CLEAR     45  28  53 CALM      29.99R
MORA           CLEAR     45  32  61 CALM      30.00R
CAMBRIDGE      CLEAR     52  34  50 CALM      29.97R
RUSH CITY      MOCLDY    47  29  49 CALM      29.98R
MOOSE LAKE     CLEAR     48  28  46 NE3       29.97R
HINCKLEY       CLOUDY    43  30  61 CALM      29.98R
CLOQUET        CLEAR     45  25  45 CALM      29.99R
MCGREGOR       CLEAR     46  30  53 CALM      29.98S
$$
MNZ071>073-080-081-089-090-097-098-050400-
   Southwest Minnesota

CITY           SKY/WX    TMP DP  RH WIND       PRES   REMARKS
MONTEVIDEO     CLEAR     55  28  35 CALM      30.01S
GRANITE FALLS  CLEAR     58  32  37 N5        30.01R
CANBY          CLEAR     53  38  56 NW3       30.02R
MARSHALL       CLEAR     54  31  41 NW7       30.01R
REDWOOD FALLS  CLEAR     59  27  29 N6        29.99R
OLIVIA         CLEAR     54  28  37 N3        29.99R
PIPESTONE      CLEAR     55  27  33 CALM      30.01S
WINDOM         CLEAR     50  32  50 CALM      30.00R
WORTHINGTON    CLEAR     51  37  58 NW7       30.01R
JACKSON        CLEAR     54  32  43 NW6       30.00R
TRACY          CLEAR     56  33  42 NW3       30.01R
SLAYTON        CLEAR     55  32  40 NW8       30.01S
$$
MNZ065>067-074>077-082>085-091>093-050400-
   South Central Minnesota

CITY           SKY/WX    TMP DP  RH WIND       PRES   REMARKS
MANKATO        CLEAR     55  23  28 NE6       29.98R
NEW ULM        CLEAR     59  27  29 N2        29.98R
ST JAMES       CLEAR     54  27  35 CALM      30.00R
FAIRMONT       CLEAR     55  30  38 N5        29.98R
GLENCOE        CLEAR     56  31  38 N3        29.98R
FARIBAULT      CLEAR     48  27  43 NW2       29.98R
OWATONNA       CLEAR     50  25  37 N3        29.98R
WASECA         CLEAR     50  30  46 CALM      29.99R
ALBERT LEA     CLEAR     54  25  32 N5        29.98R
$$
MNZ078>079-086>088-094>096-050400-
   Southeast Minnesota

CITY           SKY/WX    TMP DP  RH WIND       PRES   REMARKS
ROCHESTER      CLEAR     51  26  37 N8        29.97R
RED WING       CLEAR     48  28  46 NE5       29.97R
STANTON        CLEAR     50  29  45 CALM      29.96R
DODGE CENTER   CLEAR     50  21  32 N3        29.98R
WINONA         CLEAR     55  27  33 E5        29.97R
AUSTIN         CLEAR     52  27  37 N5        29.97R
PRESTON        CLEAR     50  26  39 N5        29.96R
$$
ABBREVIATIONS USED IN REMARKS
   TC - TEMPERATURES IN CELSIUS
  WCI - WIND CHILL INDEX
   HX - HEAT INDEX
  VSB - VISIBILITY
$$



USA.gov is the U.S. government's official web portal to all federal, state and local government web resources and services.